,,PA_Meas_PMT16A,,PR_Meas_QMR101_102,,RH_Meas_QMH101,,SR_Meas_QMS101,,TA_Meas_QMH101,,GenWind,,GenWind,
time,status,PA,status,PR,status,RH,status,SR,status,TA,status,DirAvg,status,SpdAvg,
2009-10-04, 00:00:04,VALID,918.582,VALID,0,VALID,96.5811,VALID,0,VALID,19.9938,VALID,152,VALID,0.530078,
2009-10-04, 00:01:04,VALID,918.586,VALID,0,VALID,96.6649,VALID,0.107441,VALID,19.9923,VALID,152,VALID,0.766797,
2009-10-04, 00:02:04,VALID,918.611,VALID,0,VALID,96.7107,VALID,0.107441,VALID,20.0118,VALID,152,VALID,0.690234,
2009-10-04, 00:03:04,VALID,918.601,VALID,0,VALID,96.7945,VALID,0.107441,VALID,20.0508,VALID,152,VALID,0.938281,
2009-10-04, 00:04:04,VALID,918.583,VALID,0,VALID,96.8403,VALID,0,VALID,20.0508,VALID,152,VALID,0.90625,
2009-10-04, 00:05:04,VALID,918.537,VALID,0,VALID,96.825,VALID,0,VALID,20.0118,VALID,152,VALID,0.805078,
2009-10-04, 00:06:04,VALID,918.543,VALID,0,VALID,96.8326,VALID,0,VALID,20.0328,VALID,152,VALID,0.967969,
2009-10-04, 00:07:04,VALID,918.537,VALID,0,VALID,96.886,VALID,0.107441,VALID,20.0328,VALID,152,VALID,0.610937,
2009-10-04, 00:08:04,VALID,918.517,VALID,0,VALID,96.8936,VALID,0.107441,VALID,19.9923,VALID,152,VALID,0.7125,
2009-10-04, 00:09:04,VALID,918.521,VALID,0,VALID,96.9089,VALID,0.107441,VALID,19.9923,VALID,152,VALID,0.717188,
2009-10-04, 00:10:04,VALID,918.503,VALID,0,VALID,96.9622,VALID,0.107441,VALID,19.9908,VALID,152,VALID,0.832031,
2009-10-04, 00:11:04,VALID,918.504,VALID,0,VALID,96.9317,VALID,0.107441,VALID,19.9728,VALID,152,VALID,0.682813,
2009-10-04, 00:12:04,VALID,918.486,VALID,0,VALID,96.9698,VALID,0.107441,VALID,19.9323,VALID,151,VALID,0.845312,
2009-10-04, 00:13:04,VALID,918.485,VALID,0,VALID,96.9775,VALID,0.107441,VALID,19.9533,VALID,151,VALID,0.722266,
2009-10-04, 00:14:04,VALID,918.476,VALID,0,VALID,96.9851,VALID,0,VALID,19.9338,VALID,151,VALID,0.645703,
2009-10-04, 00:15:04,VALID,918.481,VALID,0,VALID,97.0003,VALID,0.107441,VALID,19.9143,VALID,151,VALID,0.599219,
2009-10-04, 00:16:04,VALID,918.471,VALID,0,VALID,97.0156,VALID,0.107441,VALID,19.9143,VALID,151,VALID,0.614062,
2009-10-04, 00:17:04,VALID,918.465,VALID,0,VALID,97.0461,VALID,0.107441,VALID,19.8948,VALID,151,VALID,0.718359,
2009-10-04, 00:18:04,VALID,918.47,VALID,0,VALID,97.1223,VALID,0.107441,VALID,19.9143,VALID,151,VALID,0.680078,
2009-10-04, 00:19:04,VALID,918.525,VALID,0,VALID,97.1147,VALID,0.107441,VALID,19.9143,VALID,151,VALID,0.584766,
2009-10-04, 00:20:04,VALID,918.501,VALID,0,VALID,97.1909,VALID,0.107441,VALID,19.9533,VALID,151,VALID,0.717188,
2009-10-04, 00:21:04,VALID,918.485,VALID,0,VALID,97.1757,VALID,0.107441,VALID,19.9728,VALID,151,VALID,0.767187,
2009-10-04, 00:22:04,VALID,918.487,VALID,0,VALID,97.2367,VALID,0.107441,VALID,20.0118,VALID,151,VALID,0.780078,
2009-10-04, 00:23:04,VALID,918.474,VALID,0,VALID,97.229,VALID,0,VALID,20.0328,VALID,151,VALID,0.914453,
2009-10-04, 00:24:04,VALID,918.442,VALID,0,VALID,97.2367,VALID,0,VALID,20.0328,VALID,151,VALID,0.810938,
2009-10-04, 00:25:04,VALID,918.444,VALID,0,VALID,97.1528,VALID,0,VALID,20.0133,VALID,151,VALID,0.3625,
2009-10-04, 00:26:04,VALID,918.423,VALID,0,VALID,97.1986,VALID,0,VALID,20.0118,VALID,151,VALID,0.708984,
2009-10-04, 00:27:04,VALID,918.404,VALID,0,VALID,97.1604,VALID,0,VALID,19.9938,VALID,151,VALID,0.596094,
2009-10-04, 00:28:04,VALID,918.374,VALID,0,VALID,97.1528,VALID,0,VALID,20.0133,VALID,151,VALID,0.625391,
2009-10-04, 00:29:04,VALID,918.34,VALID,0,VALID,97.1528,VALID,0,VALID,20.0148,VALID,151,VALID,0.7375,
2009-10-04, 00:30:04,VALID,918.33,VALID,0,VALID,97.1452,VALID,0,VALID,19.9743,VALID,151,VALID,0.530859,
2009-10-04, 00:31:04,VALID,918.333,VALID,0,VALID,97.1909,VALID,0,VALID,20.0133,VALID,151,VALID,0.635156,
2009-10-04, 00:32:04,VALID,918.277,VALID,0,VALID,97.1833,VALID,0,VALID,20.0133,VALID,151,VALID,0.648047,
2009-10-04, 00:33:04,VALID,918.286,VALID,0,VALID,97.1909,VALID,0,VALID,20.0328,VALID,151,VALID,0.461328,
2009-10-04, 00:34:04,VALID,918.246,VALID,0,VALID,97.2062,VALID,0,VALID,20.0523,VALID,151,VALID,0.679688,
2009-10-04, 00:35:04,VALID,918.248,VALID,0,VALID,97.1604,VALID,0,VALID,20.0328,VALID,151,VALID,0.598437,
2009-10-04, 00:36:04,VALID,918.226,VALID,0,VALID,97.1604,VALID,0,VALID,20.0328,VALID,151,VALID,0.675,
2009-10-04, 00:37:04,VALID,918.231,VALID,0,VALID,97.1681,VALID,0,VALID,20.0328,VALID,151,VALID,0.596484,
2009-10-04, 00:38:04,VALID,918.217,VALID,0,VALID,97.1681,VALID,0.107441,VALID,20.0508,VALID,151,VALID,0.73125,
2009-10-04, 00:39:04,VALID,918.224,VALID,0,VALID,97.1376,VALID,0.107441,VALID,20.0508,VALID,151,VALID,0.699219,
2009-10-04, 00:40:04,VALID,918.189,VALID,0,VALID,97.1376,VALID,0.107441,VALID,20.0703,VALID,151,VALID,0.519531,
2009-10-04, 00:41:04,VALID,918.184,VALID,0,VALID,97.1071,VALID,0.107441,VALID,20.0718,VALID,151,VALID,0.490625,
2009-10-04, 00:42:04,VALID,918.198,VALID,0,VALID,97.0918,VALID,0.107441,VALID,20.0703,VALID,151,VALID,0.816406,
2009-10-04, 00:43:04,VALID,918.162,VALID,0,VALID,97.0842,VALID,0.107441,VALID,20.0703,VALID,151,VALID,0.754297,
2009-10-04, 00:44:04,VALID,918.142,VALID,0,VALID,97.0537,VALID,0.107441,VALID,20.0703,VALID,151,VALID,0.464063,
2009-10-04, 00:45:04,VALID,918.144,VALID,0,VALID,97.0003,VALID,0.107441,VALID,20.0703,VALID,151,VALID,0.209766,
2009-10-04, 00:46:04,VALID,918.151,VALID,0,VALID,96.9927,VALID,0.107441,VALID,20.0703,VALID,151,VALID,0.329688,
2009-10-04, 00:47:04,VALID,918.135,VALID,0,VALID,96.947,VALID,0.107441,VALID,20.0703,VALID,151,VALID,0.339453,
2009-10-04, 00:48:04,VALID,918.157,VALID,0,VALID,96.9317,VALID,0.107441,VALID,20.0703,VALID,151,VALID,0.388281,
2009-10-04, 00:49:04,VALID,918.139,VALID,0,VALID,96.8403,VALID,0.107441,VALID,20.0703,VALID,151,VALID,0.90625,
2009-10-04, 00:50:04,VALID,918.123,VALID,0,VALID,96.7716,VALID,0.107441,VALID,20.0718,VALID,151,VALID,0.766797,
2009-10-04, 00:51:04,VALID,918.131,VALID,0,VALID,96.703,VALID,0.107441,VALID,20.0508,VALID,151,VALID,0.435937,
2009-10-04, 00:52:04,VALID,918.131,VALID,0,VALID,96.6725,VALID,0.107441,VALID,20.0718,VALID,150,VALID,0.959766,
2009-10-04, 00:53:04,VALID,918.12,VALID,0,VALID,96.6192,VALID,0.107441,VALID,20.0508,VALID,150,VALID,0.771484,
2009-10-04, 00:54:04,VALID,918.107,VALID,0,VALID,96.6268,VALID,0.107441,VALID,20.0118,VALID,150,VALID,0.931641,
2009-10-04, 00:55:04,VALID,918.076,VALID,0,VALID,96.6268,VALID,0.107441,VALID,19.9728,VALID,149,VALID,0.623438,
2009-10-04, 00:56:04,VALID,918.108,VALID,0,VALID,96.6878,VALID,0.107441,VALID,19.9743,VALID,149,VALID,0.59375,
2009-10-04, 00:57:04,VALID,918.076,VALID,0,VALID,96.7183,VALID,0.107441,VALID,19.9533,VALID,149,VALID,0.719922,
2009-10-04, 00:58:04,VALID,918.04,VALID,0,VALID,96.7945,VALID,0.107441,VALID,19.9338,VALID,149,VALID,0.933594,
2009-10-04, 00:59:04,VALID,918.066,VALID,0,VALID,96.8631,VALID,0.107441,VALID,19.9338,VALID,148,VALID,0.808594,
2009-10-04, 01:00:04,VALID,918.029,VALID,0,VALID,96.9012,VALID,0.107441,VALID,19.9338,VALID,148,VALID,0.755078,
2009-10-04, 01:01:04,VALID,918.038,VALID,0,VALID,96.9241,VALID,0.107441,VALID,19.9143,VALID,148,VALID,0.974609,
2009-10-04, 01:02:04,VALID,918.06,VALID,0,VALID,96.9546,VALID,0.107441,VALID,19.9338,VALID,135,VALID,1.08867,
2009-10-04, 01:03:04,VALID,918.034,VALID,0,VALID,96.9698,VALID,0.107441,VALID,19.9143,VALID,132,VALID,1.02969,
2009-10-04, 01:04:04,VALID,918.051,VALID,0,VALID,96.9622,VALID,0.107441,VALID,19.9158,VALID,126,VALID,0.807422,
2009-10-04, 01:05:04,VALID,918.031,VALID,0,VALID,96.9622,VALID,0.107441,VALID,19.8948,VALID,126,VALID,0.733594,
2009-10-04, 01:06:04,VALID,918.027,VALID,0,VALID,97.0156,VALID,0.107441,VALID,19.8948,VALID,126,VALID,0.698828,
2009-10-04, 01:07:04,VALID,918.033,VALID,0,VALID,97.008,VALID,0.107441,VALID,19.9143,VALID,126,VALID,0,
2009-10-04, 01:08:04,VALID,917.988,VALID,0,VALID,97.008,VALID,0,VALID,19.9143,VALID,126,VALID,0.529688,
2009-10-04, 01:09:04,VALID,917.983,VALID,0,VALID,96.9546,VALID,0.107441,VALID,19.9143,VALID,126,VALID,0.773828,
2009-10-04, 01:10:04,VALID,917.969,VALID,0,VALID,96.9241,VALID,0,VALID,19.8948,VALID,126,VALID,0.642969,
2009-10-04, 01:11:04,VALID,917.969,VALID,0,VALID,96.8784,VALID,0,VALID,19.8948,VALID,126,VALID,0.748047,
2009-10-04, 01:12:04,VALID,917.946,VALID,0,VALID,96.8326,VALID,0.107441,VALID,19.8948,VALID,126,VALID,0.606641,
2009-10-04, 01:13:04,VALID,917.929,VALID,0,VALID,96.764,VALID,0.107441,VALID,19.9143,VALID,126,VALID,0.605469,
2009-10-04, 01:14:04,VALID,917.935,VALID,0,VALID,96.6878,VALID,0,VALID,19.8948,VALID,126,VALID,0.630859,
2009-10-04, 01:15:04,VALID,917.901,VALID,0,VALID,96.6344,VALID,0.107441,VALID,19.9143,VALID,126,VALID,0.574219,
2009-10-04, 01:16:04,VALID,917.913,VALID,0,VALID,96.6039,VALID,0,VALID,19.9143,VALID,126,VALID,0.741797,
2009-10-04, 01:17:04,VALID,917.91,VALID,0,VALID,96.5658,VALID,0.107441,VALID,19.9143,VALID,126,VALID,0.967578,
2009-10-04, 01:18:04,VALID,917.9,VALID,0,VALID,96.4972,VALID,0.107441,VALID,19.9143,VALID,126,VALID,0.838672,
2009-10-04, 01:19:04,VALID,917.911,VALID,0,VALID,96.4667,VALID,0.107441,VALID,19.9143,VALID,126,VALID,0.78125,
2009-10-04, 01:20:04,VALID,917.894,VALID,0,VALID,96.421,VALID,0.107441,VALID,19.8948,VALID,126,VALID,0.821484,
2009-10-04, 01:21:04,VALID,917.896,VALID,0,VALID,96.4133,VALID,0.107441,VALID,19.9353,VALID,126,VALID,0.551172,
2009-10-04, 01:22:04,VALID,917.877,VALID,0,VALID,96.3981,VALID,0,VALID,19.8948,VALID,126,VALID,0.61875,
2009-10-04, 01:23:04,VALID,917.885,VALID,0,VALID,96.421,VALID,0,VALID,19.9143,VALID,126,VALID,0.8,
2009-10-04, 01:24:04,VALID,917.878,VALID,0,VALID,96.3905,VALID,0,VALID,19.8948,VALID,126,VALID,0.696094,
2009-10-04, 01:25:04,VALID,917.91,VALID,0,VALID,96.3905,VALID,0.107441,VALID,19.9143,VALID,126,VALID,0.691406,
2009-10-04, 01:26:04,VALID,917.891,VALID,0,VALID,96.4362,VALID,0,VALID,19.9353,VALID,126,VALID,1.0875,
2009-10-04, 01:27:04,VALID,917.883,VALID,0,VALID,96.3066,VALID,0.107441,VALID,19.8948,VALID,126,VALID,0.7125,
2009-10-04, 01:28:04,VALID,917.868,VALID,0,VALID,96.4438,VALID,0,VALID,19.9338,VALID,126,VALID,0.717188,
2009-10-04, 01:29:04,VALID,917.894,VALID,0,VALID,96.3371,VALID,0.107441,VALID,19.9143,VALID,126,VALID,0.800781,
2009-10-04, 01:30:04,VALID,917.86,VALID,0,VALID,96.4362,VALID,0.107441,VALID,19.9338,VALID,126,VALID,1.09609,
2009-10-04, 01:31:04,VALID,917.856,VALID,0,VALID,96.3219,VALID,0.107441,VALID,19.9143,VALID,125,VALID,0.865625,
2009-10-04, 01:32:04,VALID,917.856,VALID,0,VALID,96.3219,VALID,0.107441,VALID,19.9143,VALID,126,VALID,0.942187,
2009-10-04, 01:33:04,VALID,917.83,VALID,0,VALID,96.3142,VALID,0,VALID,19.9158,VALID,125,VALID,0.682031,
2009-10-04, 01:34:04,VALID,917.807,VALID,0,VALID,96.3524,VALID,0,VALID,19.8948,VALID,116,VALID,0.691016,
2009-10-04, 01:35:04,VALID,917.778,VALID,0,VALID,96.3447,VALID,0,VALID,19.8948,VALID,116,VALID,0.664453,
2009-10-04, 01:36:04,VALID,917.771,VALID,0,VALID,96.3981,VALID,0.107441,VALID,19.8948,VALID,116,VALID,0.680469,
2009-10-04, 01:37:04,VALID,917.72,VALID,0,VALID,96.4362,VALID,0,VALID,19.8948,VALID,116,VALID,0.737891,
2009-10-04, 01:38:04,VALID,917.699,VALID,0,VALID,96.4057,VALID,0,VALID,19.8558,VALID,115,VALID,0.846875,
2009-10-04, 01:39:04,VALID,917.707,VALID,0,VALID,96.3981,VALID,0.107441,VALID,19.8558,VALID,115,VALID,0.7625,
2009-10-04, 01:40:04,VALID,917.693,VALID,0,VALID,96.4362,VALID,0.107441,VALID,19.8363,VALID,115,VALID,0.776563,
2009-10-04, 01:41:04,VALID,917.679,VALID,0,VALID,96.4972,VALID,0,VALID,19.8168,VALID,115,VALID,0.803125,
2009-10-04, 01:42:04,VALID,917.7,VALID,0,VALID,96.5201,VALID,0.107441,VALID,19.8363,VALID,115,VALID,0.714453,
2009-10-04, 01:43:04,VALID,917.703,VALID,0,VALID,96.5734,VALID,0.107441,VALID,19.8168,VALID,115,VALID,0.813281,
2009-10-04, 01:44:04,VALID,917.674,VALID,0,VALID,96.6497,VALID,0,VALID,19.8168,VALID,115,VALID,0.983594,
2009-10-04, 01:45:04,VALID,917.681,VALID,0,VALID,96.703,VALID,0.107441,VALID,19.8168,VALID,115,VALID,1.24023,
2009-10-04, 01:46:04,VALID,917.673,VALID,0,VALID,96.7107,VALID,0,VALID,19.8168,VALID,115,VALID,0.719141,
2009-10-04, 01:47:04,VALID,917.669,VALID,0,VALID,96.7183,VALID,0,VALID,19.8168,VALID,115,VALID,0.976172,
2009-10-04, 01:48:04,VALID,917.665,VALID,0,VALID,96.7183,VALID,0.107441,VALID,19.8363,VALID,115,VALID,0.399219,
2009-10-04, 01:49:04,VALID,917.634,VALID,0,VALID,96.6573,VALID,0.107441,VALID,19.8363,VALID,115,VALID,0.735547,
2009-10-04, 01:50:04,VALID,917.595,VALID,0,VALID,96.6192,VALID,0.107441,VALID,19.8168,VALID,115,VALID,0.813281,
2009-10-04, 01:51:04,VALID,917.608,VALID,0,VALID,96.5506,VALID,0,VALID,19.7973,VALID,115,VALID,0.521875,
2009-10-04, 01:52:04,VALID,917.613,VALID,0,VALID,96.6192,VALID,0.107441,VALID,19.7973,VALID,115,VALID,0.741797,
2009-10-04, 01:53:04,VALID,917.562,VALID,0,VALID,96.6497,VALID,0,VALID,19.7973,VALID,115,VALID,0.836719,
2009-10-04, 01:54:04,VALID,917.537,VALID,0,VALID,96.6802,VALID,0,VALID,19.8183,VALID,115,VALID,0.671484,
2009-10-04, 01:55:04,VALID,917.548,VALID,0,VALID,96.7183,VALID,0.107441,VALID,19.7973,VALID,115,VALID,0.794531,
2009-10-04, 01:56:04,VALID,917.545,VALID,0,VALID,96.7335,VALID,0.107441,VALID,19.8168,VALID,115,VALID,0.212109,
2009-10-04, 01:57:04,VALID,917.553,VALID,0,VALID,96.7411,VALID,0,VALID,19.8183,VALID,115,VALID,0.476172,
2009-10-04, 01:58:04,VALID,917.566,VALID,0,VALID,96.6802,VALID,0.107441,VALID,19.7973,VALID,115,VALID,0.295703,
2009-10-04, 01:59:04,VALID,917.582,VALID,0,VALID,96.6115,VALID,0,VALID,19.7988,VALID,115,VALID,0.228516,
2009-10-04, 02:00:04,VALID,917.563,VALID,0,VALID,96.5658,VALID,0,VALID,19.7583,VALID,115,VALID,0,
2009-10-04, 02:01:04,VALID,917.576,VALID,0,VALID,96.5887,VALID,0,VALID,19.7388,VALID,115,VALID,0,
2009-10-04, 02:02:04,VALID,917.617,VALID,0,VALID,96.5887,VALID,0,VALID,19.7388,VALID,115,VALID,0,
2009-10-04, 02:03:04,VALID,917.603,VALID,0,VALID,96.6497,VALID,0.107441,VALID,19.7583,VALID,115,VALID,0,
2009-10-04, 02:04:04,VALID,917.629,VALID,0,VALID,96.6115,VALID,0,VALID,19.7598,VALID,115,VALID,0,
2009-10-04, 02:05:04,VALID,917.642,VALID,0,VALID,96.6115,VALID,0.107441,VALID,19.7598,VALID,115,VALID,0,
2009-10-04, 02:06:04,VALID,917.62,VALID,0,VALID,96.6115,VALID,0.107441,VALID,19.7388,VALID,115,VALID,0,
2009-10-04, 02:07:04,VALID,917.648,VALID,0,VALID,96.5124,VALID,0.107441,VALID,19.7388,VALID,115,VALID,0.53125,
2009-10-04, 02:08:04,VALID,917.624,VALID,0,VALID,96.4591,VALID,0,VALID,19.7223,VALID,115,VALID,0.523828,
2009-10-04, 02:09:04,VALID,917.633,VALID,0,VALID,96.5124,VALID,0,VALID,19.7013,VALID,115,VALID,0.285156,
2009-10-04, 02:10:04,VALID,917.633,VALID,0,VALID,96.5277,VALID,0,VALID,19.7013,VALID,115,VALID,0,
2009-10-04, 02:11:04,VALID,917.582,VALID,0,VALID,96.5201,VALID,0,VALID,19.6818,VALID,115,VALID,0.218359,
2009-10-04, 02:12:04,VALID,917.601,VALID,0,VALID,96.4667,VALID,0,VALID,19.6818,VALID,115,VALID,0,
2009-10-04, 02:13:04,VALID,917.588,VALID,0,VALID,96.3905,VALID,0,VALID,19.6623,VALID,115,VALID,0.374609,
2009-10-04, 02:14:04,VALID,917.587,VALID,0,VALID,96.3371,VALID,0,VALID,19.6623,VALID,115,VALID,0.186328,
2009-10-04, 02:15:04,VALID,917.605,VALID,0,VALID,96.3066,VALID,0,VALID,19.6623,VALID,115,VALID,0.296875,
2009-10-04, 02:16:04,VALID,917.59,VALID,0,VALID,96.2837,VALID,0,VALID,19.6428,VALID,115,VALID,0.273828,
2009-10-04, 02:17:04,VALID,917.595,VALID,0,VALID,96.2609,VALID,0,VALID,19.6233,VALID,115,VALID,0.39375,
2009-10-04, 02:18:04,VALID,917.594,VALID,0,VALID,96.2456,VALID,0.107441,VALID,19.6023,VALID,115,VALID,0.259375,
2009-10-04, 02:19:04,VALID,917.597,VALID,0,VALID,96.2151,VALID,0,VALID,19.5828,VALID,115,VALID,0.204688,
2009-10-04, 02:20:04,VALID,917.585,VALID,0,VALID,96.2075,VALID,0.107441,VALID,19.5843,VALID,115,VALID,0.233594,
2009-10-04, 02:21:04,VALID,917.558,VALID,0,VALID,96.2228,VALID,0.107441,VALID,19.5438,VALID,115,VALID,0.120703,
2009-10-04, 02:22:04,VALID,917.557,VALID,0,VALID,96.2533,VALID,0.107441,VALID,19.5243,VALID,115,VALID,0,
2009-10-04, 02:23:04,VALID,917.527,VALID,0,VALID,96.3066,VALID,0,VALID,19.5258,VALID,115,VALID,0,
2009-10-04, 02:24:04,VALID,917.519,VALID,0,VALID,96.3295,VALID,0,VALID,19.5258,VALID,115,VALID,0.220703,
2009-10-04, 02:25:04,VALID,917.53,VALID,0,VALID,96.4057,VALID,0,VALID,19.5258,VALID,115,VALID,0.403125,
2009-10-04, 02:26:04,VALID,917.51,VALID,0,VALID,96.4743,VALID,0,VALID,19.5453,VALID,115,VALID,0.677344,
2009-10-04, 02:27:04,VALID,917.53,VALID,0,VALID,96.4819,VALID,0,VALID,19.5453,VALID,115,VALID,0.725781,
2009-10-04, 02:28:04,VALID,917.526,VALID,0,VALID,96.3676,VALID,0,VALID,19.5648,VALID,115,VALID,0.876953,
2009-10-04, 02:29:04,VALID,917.515,VALID,0,VALID,96.2151,VALID,0,VALID,19.5843,VALID,115,VALID,0.844141,
2009-10-04, 02:30:04,VALID,917.509,VALID,0,VALID,96.0627,VALID,0,VALID,19.5858,VALID,115,VALID,1.00117,
2009-10-04, 02:31:04,VALID,917.499,VALID,0,VALID,95.9864,VALID,0,VALID,19.5858,VALID,115,VALID,0.901563,
2009-10-04, 02:32:04,VALID,917.467,VALID,0,VALID,95.8873,VALID,0,VALID,19.5453,VALID,115,VALID,0.937109,
2009-10-04, 02:33:04,VALID,917.439,VALID,0,VALID,95.895,VALID,0,VALID,19.5453,VALID,115,VALID,0.961719,
2009-10-04, 02:34:04,VALID,917.465,VALID,0,VALID,95.9102,VALID,0,VALID,19.5258,VALID,115,VALID,0.785156,
2009-10-04, 02:35:04,VALID,917.467,VALID,0,VALID,95.9864,VALID,0,VALID,19.5063,VALID,115,VALID,0.717578,
2009-10-04, 02:36:04,VALID,917.47,VALID,0,VALID,96.0169,VALID,0,VALID,19.5063,VALID,115,VALID,0.754687,
2009-10-04, 02:37:04,VALID,917.463,VALID,0,VALID,96.0245,VALID,0,VALID,19.5063,VALID,115,VALID,0.710938,
2009-10-04, 02:38:04,VALID,917.474,VALID,0,VALID,96.0093,VALID,0,VALID,19.5063,VALID,115,VALID,0.904297,
2009-10-04, 02:39:04,VALID,917.471,VALID,0,VALID,95.9178,VALID,0,VALID,19.5258,VALID,115,VALID,0.696484,
2009-10-04, 02:40:04,VALID,917.46,VALID,0,VALID,95.712,VALID,0,VALID,19.5648,VALID,115,VALID,0.646094,
2009-10-04, 02:41:04,VALID,917.451,VALID,0,VALID,95.4528,VALID,0,VALID,19.6038,VALID,115,VALID,0.700781,
2009-10-04, 02:42:04,VALID,917.469,VALID,0,VALID,95.247,VALID,0,VALID,19.6038,VALID,115,VALID,0.752734,
2009-10-04, 02:43:04,VALID,917.444,VALID,0,VALID,95.2775,VALID,0,VALID,19.6233,VALID,115,VALID,1.07031,
2009-10-04, 02:44:04,VALID,917.447,VALID,0,VALID,95.3842,VALID,0,VALID,19.6233,VALID,115,VALID,1.08125,
2009-10-04, 02:45:04,VALID,917.459,VALID,0,VALID,95.5138,VALID,0,VALID,19.6233,VALID,115,VALID,0.720703,
2009-10-04, 02:46:04,VALID,917.481,VALID,0,VALID,95.5443,VALID,0,VALID,19.6233,VALID,115,VALID,0.508203,
2009-10-04, 02:47:04,VALID,917.445,VALID,0,VALID,95.5519,VALID,0,VALID,19.6233,VALID,115,VALID,0.348047,
2009-10-04, 02:48:04,VALID,917.472,VALID,0,VALID,95.6434,VALID,0,VALID,19.6428,VALID,115,VALID,0.475,
2009-10-04, 02:49:04,VALID,917.463,VALID,0,VALID,95.8645,VALID,0,VALID,19.6818,VALID,115,VALID,0.69375,
2009-10-04, 02:50:04,VALID,917.447,VALID,0,VALID,95.9254,VALID,0,VALID,19.6623,VALID,115,VALID,0.782812,
2009-10-04, 02:51:04,VALID,917.425,VALID,0,VALID,96.0245,VALID,0,VALID,19.6428,VALID,115,VALID,0.669531,
2009-10-04, 02:52:04,VALID,917.452,VALID,0,VALID,96.1236,VALID,0,VALID,19.6233,VALID,115,VALID,0.600391,
2009-10-04, 02:53:04,VALID,917.476,VALID,0,VALID,96.1999,VALID,0,VALID,19.6038,VALID,115,VALID,0.655859,
2009-10-04, 02:54:04,VALID,917.466,VALID,0,VALID,96.3676,VALID,0,VALID,19.5843,VALID,115,VALID,0.804688,
2009-10-04, 02:55:04,VALID,917.481,VALID,0,VALID,96.4286,VALID,0,VALID,19.5858,VALID,115,VALID,0.71875,
2009-10-04, 02:56:04,VALID,917.478,VALID,0,VALID,96.5353,VALID,0,VALID,19.5648,VALID,115,VALID,0.594922,
2009-10-04, 02:57:04,VALID,917.49,VALID,0,VALID,96.5734,VALID,0,VALID,19.5453,VALID,115,VALID,0.709766,
2009-10-04, 02:58:04,VALID,917.466,VALID,0,VALID,96.6115,VALID,0,VALID,19.5453,VALID,115,VALID,0.490234,
2009-10-04, 02:59:04,VALID,917.468,VALID,0,VALID,96.6192,VALID,0,VALID,19.5258,VALID,115,VALID,0.221484,
2009-10-04, 03:00:04,VALID,917.486,VALID,0,VALID,96.6344,VALID,0,VALID,19.5258,VALID,115,VALID,0.367188,
2009-10-04, 03:01:04,VALID,917.474,VALID,0,VALID,96.5734,VALID,0,VALID,19.5258,VALID,115,VALID,0.0234375,
2009-10-04, 03:02:04,VALID,917.458,VALID,0,VALID,96.5353,VALID,0,VALID,19.4868,VALID,115,VALID,0,
2009-10-04, 03:03:04,VALID,917.442,VALID,0,VALID,96.5429,VALID,0,VALID,19.4883,VALID,115,VALID,0,
2009-10-04, 03:04:04,VALID,917.449,VALID,0,VALID,96.5658,VALID,0,VALID,19.4883,VALID,115,VALID,0,
2009-10-04, 03:05:04,VALID,917.453,VALID,0,VALID,96.5277,VALID,0,VALID,19.5078,VALID,115,VALID,0.305078,
2009-10-04, 03:06:04,VALID,917.415,VALID,0,VALID,96.5582,VALID,0,VALID,19.4868,VALID,115,VALID,0.0457031,
2009-10-04, 03:07:04,VALID,917.43,VALID,0,VALID,96.5277,VALID,0,VALID,19.4868,VALID,115,VALID,0.246094,
2009-10-04, 03:08:04,VALID,917.431,VALID,0,VALID,96.4515,VALID,0,VALID,19.4673,VALID,115,VALID,0.155859,
2009-10-04, 03:09:04,VALID,917.406,VALID,0,VALID,96.3905,VALID,0,VALID,19.5078,VALID,115,VALID,0.0761719,
2009-10-04, 03:10:04,VALID,917.432,VALID,0,VALID,96.3371,VALID,0,VALID,19.4868,VALID,115,VALID,0,
2009-10-04, 03:11:04,VALID,917.424,VALID,0,VALID,96.2837,VALID,0,VALID,19.5273,VALID,115,VALID,0,
2009-10-04, 03:12:04,VALID,917.397,VALID,0,VALID,96.2151,VALID,0,VALID,19.5063,VALID,115,VALID,0.1,
2009-10-04, 03:13:04,VALID,917.395,VALID,0,VALID,96.0855,VALID,0,VALID,19.5258,VALID,115,VALID,0,
2009-10-04, 03:14:04,VALID,917.39,VALID,0,VALID,95.9636,VALID,0,VALID,19.5468,VALID,115,VALID,0,
2009-10-04, 03:15:04,VALID,917.376,VALID,0,VALID,95.712,VALID,0,VALID,19.5063,VALID,115,VALID,0,
2009-10-04, 03:16:04,VALID,917.36,VALID,0,VALID,95.5443,VALID,0,VALID,19.5078,VALID,115,VALID,0.394141,
2009-10-04, 03:17:04,VALID,917.346,VALID,0,VALID,95.5367,VALID,0,VALID,19.4883,VALID,115,VALID,0.212891,
2009-10-04, 03:18:04,VALID,917.343,VALID,0,VALID,95.5367,VALID,0,VALID,19.4478,VALID,115,VALID,0.394531,
2009-10-04, 03:19:04,VALID,917.365,VALID,0,VALID,95.4833,VALID,0,VALID,19.4298,VALID,115,VALID,0.571484,
2009-10-04, 03:20:04,VALID,917.336,VALID,0,VALID,95.8645,VALID,0,VALID,19.4478,VALID,115,VALID,0.683203,
2009-10-04, 03:21:04,VALID,917.347,VALID,0,VALID,96.0322,VALID,0,VALID,19.4493,VALID,115,VALID,0.482812,
2009-10-04, 03:22:04,VALID,917.333,VALID,0,VALID,96.1008,VALID,0,VALID,19.4493,VALID,115,VALID,0.155469,
2009-10-04, 03:23:04,VALID,917.336,VALID,0,VALID,96.1008,VALID,0,VALID,19.4283,VALID,115,VALID,0.0378906,
2009-10-04, 03:24:04,VALID,917.293,VALID,0,VALID,96.1846,VALID,0.107441,VALID,19.4478,VALID,115,VALID,0.396875,
2009-10-04, 03:25:04,VALID,917.312,VALID,0,VALID,96.1389,VALID,0,VALID,19.4283,VALID,115,VALID,0.361719,
2009-10-04, 03:26:04,VALID,917.315,VALID,0,VALID,96.1465,VALID,0,VALID,19.3879,VALID,115,VALID,0.28125,
2009-10-04, 03:27:04,VALID,917.3,VALID,0,VALID,96.2151,VALID,0,VALID,19.3893,VALID,115,VALID,0.385156,
2009-10-04, 03:28:04,VALID,917.288,VALID,0,VALID,96.3066,VALID,0,VALID,19.3698,VALID,115,VALID,0.648828,
2009-10-04, 03:29:04,VALID,917.278,VALID,0,VALID,96.4133,VALID,0,VALID,19.3893,VALID,115,VALID,0.901953,
2009-10-04, 03:30:04,VALID,917.284,VALID,0,VALID,96.5582,VALID,0,VALID,19.3879,VALID,115,VALID,0.845312,
2009-10-04, 03:31:04,VALID,917.3,VALID,0,VALID,96.6573,VALID,0.107441,VALID,19.4268,VALID,115,VALID,0.916016,
2009-10-04, 03:32:04,VALID,917.324,VALID,0,VALID,96.6802,VALID,0,VALID,19.4478,VALID,115,VALID,0.882422,
2009-10-04, 03:33:04,VALID,917.263,VALID,0,VALID,96.5811,VALID,0,VALID,19.4283,VALID,115,VALID,0.852344,
2009-10-04, 03:34:04,VALID,917.27,VALID,0,VALID,96.6344,VALID,0,VALID,19.4268,VALID,115,VALID,0.867969,
2009-10-04, 03:35:04,VALID,917.25,VALID,0,VALID,96.5658,VALID,0.107441,VALID,19.4268,VALID,115,VALID,0.844141,
2009-10-04, 03:36:04,VALID,917.238,VALID,0,VALID,96.4515,VALID,0.107441,VALID,19.4463,VALID,115,VALID,0.725391,
2009-10-04, 03:37:04,VALID,917.235,VALID,0,VALID,96.4286,VALID,0.107441,VALID,19.4478,VALID,115,VALID,0.688672,
2009-10-04, 03:38:04,VALID,917.211,VALID,0,VALID,96.3524,VALID,0,VALID,19.4074,VALID,115,VALID,0.812891,
2009-10-04, 03:39:04,VALID,917.206,VALID,0,VALID,96.2456,VALID,0,VALID,19.3879,VALID,116,VALID,1.26953,